Tracking 26894 objects as of 1-Feb-2023
HD Live streaming from Space Station
objects crossing your sky now

OBJECT K

Track OBJECT K now!
10-day predictions


NORAD ID: 42834
Int'l Code: 2017-042K
Perigee: 586.7 km
Apogee: 603.9 km
Inclination: 97.4 °
Period: 96.4 minutes
Semi major axis: 6966 km
RCS: Unknown
Launch date: July 14, 2017
Source: (TBD)
Launch site: TYURATAM MISSILE AND SPACE COMPLEX (TTMTR)
Your satellite tracking list
Your tracking list is empty




NASA's NSSDC Master Catalog

Two Line Element Set (TLE):
1 42834U 17042K   23032.82386947  .00002100  00000-0  20614-3 0  9991
2 42834  97.3986 239.4783 0012296 325.8206  34.2222 14.93142137302349
Source of the keplerian elements: AFSPC